This demonstration page uses our WeatherBlox Daily Observations layout. Learn more.

Left ArrowRight Arrow

44.31136, -96.79839

Hourly Observations for September 1, 2021

Temp ( °F °C ) Dew Point ( °F °C ) Humidity (%) Winds ( mph kmh ) Pressure ( in mb ) Visibility ( mi km ) Precip ( " mm )
12:56 am 00:56 Clear 63 17.2 57 13.9 81 81 SE 9 15 29.95 1014 10 16 0.00 0.00
1:56 am 01:56 Clear 62 16.7 57 13.9 84 84 SE 10 17 29.95 1014 10 16 0.00 0.00
2:56 am 02:56 Clear 61 16.1 57 13.9 87 87 ESE 9 15 29.96 1014 10 16 0.00 0.00
3:56 am 03:56 Clear 59 15 56 13.3 90 90 ESE 10 17 29.96 1015 10 16 0.00 0.00
4:56 am 04:56 Clear 58 14.4 55 12.8 90 90 SE 7 11 29.97 1015 10 16 0.00 0.00
5:56 am 05:56 Clear 58 14.4 55 12.8 90 90 SE 9 15 29.97 1015 10 16 0.00 0.00
6:56 am 06:56 Sunny 57 13.9 55 12.8 93 93 SE 9 15 29.98 1015 10 16 0.00 0.00
7:56 am 07:56 Sunny 59 15 56 13.3 90 90 SE 8 13 30.00 1016 10 16 0.00 0.00
8:56 am 08:56 Sunny 62 16.7 57 13.9 84 84 SSE 12 19 30.02 1017 10 16 0.00 0.00
9:56 am 09:56 Sunny 66 18.9 59 15 78 78 SSE 14 22 30.01 1016 10 16 0.00 0.00
10:56 am 10:56 Sunny 69 20.6 59 15 70 70 SSE 14 22 30.00 1016 10 16 0.00 0.00
11:56 am 11:56 Sunny 72 22.2 59 15 64 64 SSE 21 33 29.99 1016 10 16 0.00 0.00
12:56 pm 12:56 Mostly Sunny 74 23.3 59 15 60 60 SE 21 33 29.98 1015 10 16 0.00 0.00
1:56 pm 13:56 Partly Cloudy 75 23.9 60 15.6 60 60 SE 15 24 29.96 1015 10 16 0.00 0.00
2:56 pm 14:56 Mostly Sunny 76 24.4 59 15 56 56 SE 21 33 29.97 1015 10 16 0.00 0.00
3:56 pm 15:56 Mostly Sunny 76 24.4 60 15.6 58 58 S 17 28 29.96 1015 10 16 0.00 0.00
4:56 pm 16:56 Mostly Cloudy 74 23.3 60 15.6 62 62 SE 15 24 29.98 1015 10 16 0.00 0.00
5:56 pm 17:56 Mostly Cloudy 75 23.9 60 15.6 60 60 S 13 20 30.01 1016 10 16 0.00 0.00
6:56 pm 18:56 Sunny 73 22.8 60 15.6 64 64 SE 18 30 29.96 1015 10 16 0.00 0.00
7:56 pm 19:56 Sunny 71 21.7 60 15.6 68 68 SE 18 30 29.95 1014 10 16 0.00 0.00
8:56 pm 20:56 Clear 69 20.6 60 15.6 73 73 SE 15 24 29.96 1015 10 16 0.00 0.00
9:56 pm 21:56 Clear 68 20 59 15 73 73 SE 14 22 30.00 1016 10 16 0.00 0.00
10:56 pm 22:56 Clear 66 18.9 59 15 78 78 ESE 10 17 29.99 1016 10 16 0.00 0.00
11:56 pm 23:56 Clear 64 17.8 58 14.4 81 81 SE 13 20 29.98 1015 10 16 0.00 0.00

Powered by AerisWeather